Location: Betzi
(47.2343°N, 9.5260°E)
Time: 17:10:44
(UTC+00:00)

ATLAS CENTAUR R/B - Pass Details

Date: 27 May 2022
Orbit: 443 x 688 km, 64.6° (Epoch: 07 June)

Event Time Altitude Azimuth Distance (km) Brightness Sun altitude
Rises 00:08:58 0° 306° (NW) 3,042 5.4 -20.6°
Reaches altitude 10° 00:12:32 10° 280° (W) 2,090 4.2 -20.5°
Enters shadow 00:13:51 13° 264° (W) 1,903 3.9 -20.4°
